Flag for Morocco Weather past 2 weeks in Marrakech, Morocco

Now
64 °F

Passing clouds.


Feels Like: 64 °F
Forecast: 41 / 66 °F
Wind: 3 mph from North

Location: Marrakech Airport

Current Time: Jan 27, 2015 at 1:18:33 PM

Latest Report: Jan 27, 2015 at 1:00 PM


Visibility: N/A

Pressure: 30.33 "Hg

Humidity: 46%

Dew point: 43 °F

Location of MarrakechLocation

Historic Weather in Marrakech — Graph

°F

Marrakech temperature yesterday

Maximum temperature yesterday: 68 °F (at 3:00 PM)
Minimum temperature yesterday: 39 °F (at 7:00 AM)
Average temperature yesterday: 53 °F

Past Weeks' High & Low Weather Summary

 TemperatureHumidityPressure
High72 °F (Jan 12, 1:30 PM)100% (Jan 13, 5:30 PM)30.39 "Hg (Jan 13, 5:30 PM)
Low37 °F (Jan 20, 7:30 AM)31% (Jan 15, 3:00 PM)29.98 "Hg (Jan 19, 4:00 AM)
Average52 °F81%30.21 "Hg
* Reported Jan 12 12:00 Noon — Jan 27 12:00 Noon, Marrakech, Weather by CustomWeather, © 2014

Note: Actual official high and low records may vary slightly from our data, if they occured in-between our weather recording intervals... More about our weather records

Advertising

Marrakech weather history for previous 24 hours

 ConditionsComfort  
Time TempWeatherWind HumidityBarometerVisibility
12:00 PM
Jan 27
61 °FSunny.2 mph55%30.36 "Hg10 mi
11:30 AM61 °FSunny.No wind55%30.36 "Hg10 mi
11:00 AM59 °FSunny.No wind59%30.39 "Hg10 mi
10:30 AM57 °FSunny.No wind67%30.39 "Hg10 mi
10:00 AM55 °FSunny.No wind67%30.36 "Hg10 mi
9:30 AM52 °FCool.No wind82%30.36 "Hg4 mi
9:00 AM48 °FSunny.No wind87%30.36 "Hg10 mi
8:30 AM45 °FSunny.No wind93%30.36 "Hg10 mi
8:00 AM41 °FSunny.No wind93%30.33 "Hg10 mi
7:30 AM41 °FSunny.No wind93%30.33 "Hg10 mi
7:00 AM41 °FSunny.No wind93%30.33 "Hg10 mi
6:30 AM41 °FSunny.5 mph100%30.33 "Hg10 mi
6:00 AM43 °FClear.6 mph93%30.33 "Hg10 mi
5:30 AM43 °FPassing clouds.3 mph93%30.30 "HgN/A
5:00 AM45 °FClear.3 mph87%30.30 "Hg10 mi
4:30 AM45 °FClear.2 mph87%30.30 "Hg10 mi
4:00 AM43 °FClear.5 mph93%30.30 "Hg10 mi
3:30 AM43 °FQuite cool.3 mph93%30.30 "HgN/A
3:00 AM43 °FClear.2 mph87%30.33 "Hg10 mi
2:30 AM45 °FClear.No wind93%30.33 "Hg10 mi
2:00 AM45 °FClear.No wind93%30.33 "Hg10 mi
12:00 AM50 °FClear.No wind82%30.36 "Hg10 mi
11:30 PM
Jan 26
50 °FClear.3 mph82%30.36 "Hg10 mi
11:00 PM52 °FClear.2 mph77%30.36 "Hg10 mi
10:30 PM52 °FCool.3 mph77%30.36 "HgN/A
10:00 PM50 °FClear.3 mph82%30.36 "Hg4 mi
9:30 PM52 °FClear.5 mph77%30.33 "Hg10 mi
9:00 PM52 °FClear.5 mph77%30.33 "Hg10 mi
8:30 PM54 °FClear.5 mph72%30.33 "Hg10 mi
8:00 PM57 °FClear.3 mph59%30.33 "Hg10 mi
7:30 PM59 °FClear.3 mph55%30.33 "Hg10 mi
7:00 PM59 °FClear.3 mph55%30.30 "Hg10 mi
6:30 PM61 °FClear.5 mph52%30.30 "Hg10 mi
6:00 PM64 °FClear.5 mph46%30.27 "Hg10 mi
5:30 PM64 °FMild.5 mph46%30.27 "HgN/A
5:00 PM68 °FMild.No wind46%30.27 "HgN/A
4:30 PM68 °FPassing clouds.3 mph43%30.27 "HgN/A
4:00 PM68 °FPassing clouds.3 mph38%30.27 "HgN/A
3:30 PM68 °FPassing clouds.3 mph38%30.27 "HgN/A
3:00 PM68 °FPassing clouds.5 mph40%30.27 "HgN/A
2:30 PM66 °FSunny.2 mph40%30.27 "Hg10 mi
2:00 PM66 °FSunny.1 mph40%30.27 "Hg10 mi
1:30 PM66 °FSunny.2 mph43%30.27 "Hg10 mi
1:00 PM64 °FSunny.2 mph49%30.30 "Hg10 mi
Weather by CustomWeather, © 2014

See weather overviewHow to use our weather pages